Leeuwarden, Netherlands

1:10 AM CEST on May 01, 2017 (GMT +0200)
Leeuwarden Air Base

Weather History for EHLW - December, 2012

Change the Weather History Date:

Friday, December 7, 2012

  Actual Average Record
Temperature  
Mean Temperature 28 °F -  
Max Temperature 33 °F 40 °F 53 °F (2007)
Min Temperature 23 °F 32 °F 19 °F (2010)
Degree Days  
Heating Degree Days 37    
Moisture  
Dew Point 28 °F    
Average Humidity 85    
Maximum Humidity 93    
Minimum Humidity 69    
Precipitation  
Precipitation 0.02 in - - ()
Sea Level Pressure  
Sea Level Pressure 29.55 in    
Wind  
Wind Speed 16 mph ()    
Max Wind Speed 22 mph    
Max Gust Speed 37 mph    
Visibility 5.7 miles    
Events Snow    
Averages and records for this station are not official NWS values.
T = Trace of Precipitation, MM = Missing Value Source: Averaged Metar Reports

Daily Weather History Graph

Daily Weather History Graph

Search for Another Location

Airport or City:

Trip Planner

Search our weather history database for the weather conditions in past years. The results will help you decide how hot, cold, wet, or windy it might be!

Date:

Astronomy

Dec. 07, 2012 Rise Set
Actual Time 8:37 AM CET 4:19 PM CET
Civil Twilight 7:55 AM CET 5:01 PM CET
Nautical Twilight 7:10 AM CET 5:46 PM CET
Astronomical Twilight 6:28 AM CET 6:28 PM CET
Moon 12:48 AM CET (12/7) 12:54 PM CET (12/7)
Length of Visible Light 9h 06m
Length of Day
7h 42m
Last Quarter, 41% of the Moon is Illuminated
Dec 7
Last Quarter
Dec 13
New
Dec 20
First Quarter
Dec 28
Full
Jan 5
Last Quarter

Hourly Weather History & Observations

Time (CET) Temp. Windchill Dew Point Humidity Pressure Visibility Wind Dir Wind Speed Gust Speed Precip Events Conditions
12:25 AM 32.0 °F 22.1 °F 28.4 °F 87% 29.71 in 6.2 mi South 13.8 mph - N/A   Partly Cloudy
12:55 AM 32.0 °F 20.8 °F 28.4 °F 87% 29.68 in 6.2 mi South 17.3 mph - N/A   Mostly Cloudy
1:00 AM 33 °F - 28 °F 74% 29.68 in 14 mi South 17.9 mph - -   Partly Cloudy
1:25 AM 32.0 °F 20.5 °F 28.4 °F 87% 29.65 in 6.2 mi South 18.4 mph - N/A   Mostly Cloudy
1:55 AM 32.0 °F 21.2 °F 28.4 °F 87% 29.65 in 6.2 mi South 16.1 mph - N/A   Overcast
2:25 AM 32.0 °F 21.2 °F 28.4 °F 87% 29.62 in 6.2 mi South 16.1 mph - N/A   Mostly Cloudy
2:38 AM 33.8 °F 23.2 °F 28.4 °F 81% 29.62 in 6.2 mi South 17.3 mph - N/A   Mostly Cloudy
2:55 AM 33.8 °F 23.2 °F 28.4 °F 81% 29.62 in 6.2 mi South 17.3 mph - N/A   Mostly Cloudy
3:15 AM 33.8 °F 23.2 °F 28.4 °F 81% 29.59 in 6.2 mi South 17.3 mph - N/A   Mostly Cloudy
3:25 AM 33.8 °F 22.8 °F 28.4 °F 81% 29.59 in 6.2 mi South 18.4 mph - N/A   Mostly Cloudy
3:55 AM 33.8 °F 22.8 °F 28.4 °F 81% 29.56 in 6.2 mi South 18.4 mph - N/A   Scattered Clouds
3:59 AM 33.8 °F 22.8 °F 28.4 °F 81% 29.56 in 4.3 mi South 18.4 mph - N/A   Mostly Cloudy
4:05 AM 33.8 °F 22.8 °F 28.4 °F 81% 29.56 in 4.3 mi South 18.4 mph - N/A Snow Light Snow
4:11 AM 32.0 °F 20.8 °F 28.4 °F 87% 29.56 in 5.0 mi South 17.3 mph - N/A Snow Light Snow
4:25 AM 33.8 °F 22.8 °F 28.4 °F 81% 29.56 in 6.2 mi SSE 18.4 mph - N/A   Partly Cloudy
4:30 AM 33.8 °F 23.2 °F 28.4 °F 81% 29.53 in 6.2 mi SSE 17.3 mph 31.1 mph N/A Snow Light Snow
4:37 AM 33.8 °F 23.2 °F 28.4 °F 81% 29.53 in 4.3 mi SSE 17.3 mph 28.8 mph N/A Snow Light Snow
4:46 AM 33.8 °F 22.8 °F 28.4 °F 81% 29.53 in 3.7 mi SSE 18.4 mph - N/A Snow Light Snow
4:55 AM 32.0 °F 21.2 °F 28.4 °F 87% 29.53 in 5.0 mi SSE 16.1 mph - N/A Snow Light Snow
5:08 AM 33.8 °F 23.2 °F 30.2 °F 87% 29.53 in 6.2 mi SSE 17.3 mph 28.8 mph N/A   Partly Cloudy
5:25 AM 33.8 °F 23.2 °F 28.4 °F 81% 29.50 in 6.2 mi SSE 17.3 mph - N/A   Mostly Cloudy
5:42 AM 33.8 °F 23.5 °F 28.4 °F 81% 29.50 in 6.2 mi SSE 16.1 mph - N/A   Mostly Cloudy
5:49 AM 33.8 °F 23.5 °F 28.4 °F 81% 29.50 in 6.2 mi SSE 16.1 mph 28.8 mph N/A   Mostly Cloudy
5:55 AM 33.8 °F 23.5 °F 28.4 °F 81% 29.50 in 6.2 mi SSE 16.1 mph 28.8 mph N/A   Mostly Cloudy
6:00 AM 33.8 °F 23.5 °F 28.4 °F 81% 29.50 in 6.2 mi SSE 16.1 mph - N/A   Mostly Cloudy
6:05 AM 33.8 °F 23.5 °F 28.4 °F 81% 29.50 in 6.2 mi SSE 16.1 mph - N/A Snow Light Snow
6:11 AM 33.8 °F 23.5 °F 28.4 °F 81% 29.50 in 4.3 mi SSE 16.1 mph 27.6 mph N/A Snow Light Snow
6:21 AM 32.0 °F 20.8 °F 28.4 °F 87% 29.50 in - SSE 17.3 mph 28.8 mph N/A Snow Light Snow
6:25 AM 32.0 °F 20.8 °F 28.4 °F 87% 29.50 in - SSE 17.3 mph - N/A Snow Light Snow
6:29 AM 32.0 °F 20.5 °F 28.4 °F 87% 29.50 in - SSE 18.4 mph - N/A Snow Light Snow
6:35 AM 32.0 °F 20.5 °F 28.4 °F 87% 29.50 in - SSE 18.4 mph - N/A Snow Light Snow
6:39 AM 32.0 °F 20.5 °F 28.4 °F 87% 29.50 in - SSE 18.4 mph - N/A Snow Light Snow
6:47 AM 32.0 °F 20.1 °F 28.4 °F 87% 29.50 in 2.5 mi SSE 19.6 mph - N/A Snow Light Snow
6:51 AM 32.0 °F 20.5 °F 28.4 °F 87% 29.50 in - SSE 18.4 mph - N/A Snow Light Snow
6:55 AM 32.0 °F 20.5 °F 28.4 °F 87% 29.50 in 2.5 mi SSE 18.4 mph - N/A Snow Light Snow
6:59 AM 32.0 °F 20.1 °F 28.4 °F 87% 29.50 in 3.1 mi SSE 19.6 mph - N/A Snow Light Snow
7:00 AM 32 °F - 29 °F 82% 29.51 in 3 mi SSE 20.1 mph - - Snow Light Snow Showers
7:03 AM 32.0 °F 20.1 °F 28.4 °F 87% 29.50 in - SSE 19.6 mph - N/A Snow Light Snow
7:07 AM 32.0 °F 20.1 °F 28.4 °F 87% 29.50 in - SSE 19.6 mph - N/A Snow Light Snow
7:25 AM 32.0 °F 20.1 °F 28.4 °F 87% 29.50 in 1.4 mi SSE 19.6 mph - N/A Snow Light Snow
7:55 AM 32.0 °F 20.5 °F 30.2 °F 93% 29.47 in 1.2 mi SSE 18.4 mph - N/A Snow Light Snow
7:59 AM 32.0 °F 19.8 °F 30.2 °F 93% 29.47 in 1.2 mi SE 20.7 mph - N/A Snow Light Snow
8:03 AM 32.0 °F 20.1 °F 30.2 °F 93% 29.47 in 1.6 mi SSE 19.6 mph - N/A Snow Light Snow
8:07 AM 32.0 °F 20.5 °F 30.2 °F 93% 29.47 in 1.8 mi SSE 18.4 mph - N/A Snow Light Snow
8:11 AM 32.0 °F 21.2 °F 30.2 °F 93% 29.47 in 1.9 mi SSE 16.1 mph - N/A Snow Light Snow
8:15 AM 32.0 °F 20.8 °F 30.2 °F 93% 29.47 in 1.4 mi SSE 17.3 mph - N/A Snow Light Snow
8:25 AM 32.0 °F 20.8 °F 30.2 °F 93% 29.47 in 1.4 mi SSE 17.3 mph - N/A Snow Light Snow
8:29 AM 32.0 °F 20.8 °F 30.2 °F 93% 29.47 in 1.7 mi SSE 17.3 mph - N/A Snow Light Snow
8:33 AM 32.0 °F 20.5 °F 30.2 °F 93% 29.47 in - SSE 18.4 mph - N/A Snow Light Snow
8:38 AM 32.0 °F 20.8 °F 30.2 °F 93% 29.47 in - SSE 17.3 mph - N/A Snow Light Snow
8:42 AM 32.0 °F 20.8 °F 30.2 °F 93% 29.47 in - SSE 17.3 mph - N/A Snow Light Snow
8:46 AM 32.0 °F 20.5 °F 30.2 °F 93% 29.47 in 3.1 mi SSE 18.4 mph - N/A Snow Light Snow
8:50 AM 32.0 °F 20.5 °F 30.2 °F 93% 29.47 in 3.7 mi SSE 18.4 mph - N/A Snow Light Snow
8:55 AM 32.0 °F 20.5 °F 30.2 °F 93% 29.47 in 4.3 mi SE 18.4 mph - N/A Snow Light Snow
8:58 AM 32.0 °F 20.5 °F 30.2 °F 93% 29.47 in 5.0 mi SE 18.4 mph - N/A Snow Light Snow
9:02 AM 32.0 °F 20.5 °F 30.2 °F 93% 29.47 in 5.0 mi SE 18.4 mph - N/A Snow Light Snow
9:06 AM 32.0 °F 20.5 °F 30.2 °F 93% 29.47 in 3.7 mi SE 18.4 mph - N/A   Mostly Cloudy
9:10 AM 32.0 °F 20.5 °F 30.2 °F 93% 29.47 in 3.7 mi SE 18.4 mph - N/A   Mostly Cloudy
9:14 AM 32.0 °F 20.1 °F 30.2 °F 93% 29.47 in 5.0 mi SE 19.6 mph - N/A   Mostly Cloudy
9:18 AM 32.0 °F 20.1 °F 30.2 °F 93% 29.47 in 5.0 mi SE 19.6 mph - N/A   Mostly Cloudy
9:25 AM 32.0 °F 19.8 °F 30.2 °F 93% 29.47 in 5.6 mi SE 20.7 mph - N/A   Mostly Cloudy
9:29 AM 32.0 °F 20.1 °F 30.2 °F 93% 29.47 in 6.2 mi SE 19.6 mph - N/A   Mostly Cloudy
9:30 AM 32.0 °F 20.5 °F 30.2 °F 93% 29.47 in 6.2 mi SE 18.4 mph - N/A   Mostly Cloudy
9:34 AM 32.0 °F 20.1 °F 30.2 °F 93% 29.47 in 6.2 mi SE 19.6 mph - N/A   Mostly Cloudy
9:39 AM 32.0 °F 20.1 °F 30.2 °F 93% 29.47 in 6.2 mi SE 19.6 mph - N/A   Mostly Cloudy
9:43 AM 32.0 °F 19.8 °F 30.2 °F 93% 29.47 in 6.2 mi SE 20.7 mph - N/A   Mostly Cloudy
9:44 AM 32.0 °F 19.5 °F 30.2 °F 93% 29.47 in 6.2 mi SE 21.9 mph - N/A   Mostly Cloudy
9:51 AM 32.0 °F 19.8 °F 30.2 °F 93% 29.47 in 6.2 mi SE 20.7 mph 32.2 mph N/A   Mostly Cloudy
9:55 AM 32.0 °F 19.8 °F 30.2 °F 93% 29.47 in 6.2 mi SE 20.7 mph 32.2 mph N/A   Mostly Cloudy
9:59 AM 32.0 °F 19.5 °F 30.2 °F 93% 29.50 in 6.2 mi SE 21.9 mph - N/A   Mostly Cloudy
10:00 AM 32.0 °F 19.8 °F 30.2 °F 93% 29.50 in 6.2 mi SE 20.7 mph - N/A   Mostly Cloudy
10:09 AM 32.0 °F 19.8 °F 30.2 °F 93% 29.50 in 6.2 mi SE 20.7 mph 36.8 mph N/A   Mostly Cloudy
10:18 AM 32.0 °F 19.8 °F 28.4 °F 87% 29.50 in 6.2 mi SE 20.7 mph - N/A   Overcast
10:25 AM 32.0 °F 19.8 °F 28.4 °F 87% 29.50 in 6.2 mi SE 20.7 mph - N/A   Overcast
10:26 AM 32.0 °F 19.8 °F 28.4 °F 87% 29.50 in 6.2 mi SE 20.7 mph - N/A   Mostly Cloudy
10:30 AM 32.0 °F 20.1 °F 28.4 °F 87% 29.50 in 6.2 mi SE 19.6 mph - N/A   Mostly Cloudy
10:34 AM 32.0 °F 20.1 °F 28.4 °F 87% 29.50 in 6.2 mi SE 19.6 mph - N/A   Mostly Cloudy
10:38 AM 32.0 °F 20.1 °F 28.4 °F 87% 29.50 in 6.2 mi SE 19.6 mph - N/A   Mostly Cloudy
10:42 AM 32.0 °F 19.8 °F 28.4 °F 87% 29.50 in 6.2 mi SE 20.7 mph - N/A   Overcast
10:55 AM 32.0 °F 20.1 °F 28.4 °F 87% 29.50 in 6.2 mi SE 19.6 mph 31.1 mph N/A   Overcast
10:56 AM 32.0 °F 20.5 °F 28.4 °F 87% 29.50 in 6.2 mi SE 18.4 mph 31.1 mph N/A   Overcast
11:03 AM 32.0 °F 20.8 °F 28.4 °F 87% 29.50 in 6.2 mi SE 17.3 mph - N/A   Overcast
11:04 AM 32.0 °F 20.8 °F 28.4 °F 87% 29.50 in 6.2 mi SE 17.3 mph - N/A   Overcast
11:11 AM 32.0 °F 20.8 °F 28.4 °F 87% 29.50 in 6.2 mi SE 17.3 mph - N/A   Overcast
11:12 AM 32.0 °F 20.8 °F 28.4 °F 87% 29.50 in 6.2 mi SE 17.3 mph - N/A   Overcast
11:19 AM 32.0 °F 20.5 °F 28.4 °F 87% 29.50 in 6.2 mi SE 18.4 mph - N/A   Overcast
11:25 AM 32.0 °F 20.8 °F 28.4 °F 87% 29.50 in 6.2 mi SE 17.3 mph - N/A   Overcast
11:29 AM 32.0 °F 20.5 °F 28.4 °F 87% 29.50 in 6.2 mi SE 18.4 mph - N/A   Overcast
11:30 AM 32.0 °F 20.1 °F 28.4 °F 87% 29.50 in 6.2 mi SE 19.6 mph - N/A   Scattered Clouds
11:37 AM 32.0 °F 20.1 °F 28.4 °F 87% 29.50 in 6.2 mi SE 19.6 mph - N/A   Mostly Cloudy
11:55 AM 32.0 °F 19.8 °F 28.4 °F 87% 29.50 in 6.2 mi SE 20.7 mph - N/A   Mostly Cloudy
12:20 PM 32.0 °F 20.1 °F 28.4 °F 87% 29.50 in 6.2 mi SE 19.6 mph - N/A   Mostly Cloudy
12:23 PM 32.0 °F 19.8 °F 28.4 °F 87% 29.50 in 6.2 mi SE 20.7 mph - N/A   Mostly Cloudy
12:25 PM 32.0 °F 19.8 °F 28.4 °F 87% 29.50 in 6.2 mi SE 20.7 mph - N/A   Mostly Cloudy
12:55 PM 33.8 °F 22.5 °F 28.4 °F 81% 29.50 in 6.2 mi SE 19.6 mph 31.1 mph N/A   Overcast
1:00 PM 33 °F - 28 °F 77% 29.53 in 16 mi SE 17.9 mph - -   Partly Cloudy
1:04 PM 32.0 °F 20.5 °F 28.4 °F 87% 29.50 in 6.2 mi SE 18.4 mph - N/A   Overcast
1:10 PM 33.8 °F 22.8 °F 28.4 °F 81% 29.53 in 6.2 mi SE 18.4 mph - N/A   Partly Cloudy
1:14 PM 33.8 °F 23.2 °F 28.4 °F 81% 29.53 in 6.2 mi SE 17.3 mph - N/A   Scattered Clouds
1:21 PM 33.8 °F 23.9 °F 28.4 °F 81% 29.53 in 6.2 mi SE 15.0 mph - N/A   Mostly Cloudy
1:25 PM 33.8 °F 23.9 °F 28.4 °F 81% 29.53 in 6.2 mi SE 15.0 mph - N/A   Mostly Cloudy
1:29 PM 33.8 °F 23.5 °F 28.4 °F 81% 29.53 in 6.2 mi SE 16.1 mph - N/A   Mostly Cloudy
1:33 PM 33.8 °F 23.5 °F 28.4 °F 81% 29.53 in 6.2 mi SE 16.1 mph - N/A   Mostly Cloudy
1:37 PM 33.8 °F 23.5 °F 28.4 °F 81% 29.53 in 6.2 mi SE 16.1 mph - N/A   Mostly Cloudy
1:41 PM 33.8 °F 23.5 °F 28.4 °F 81% 29.53 in 6.2 mi SE 16.1 mph - N/A   Scattered Clouds
1:42 PM 33.8 °F 23.5 °F 28.4 °F 81% 29.53 in 6.2 mi SE 16.1 mph - N/A   Overcast
1:43 PM 33.8 °F 23.5 °F 28.4 °F 81% 29.53 in 6.2 mi SE 16.1 mph - N/A   Overcast
1:44 PM 33.8 °F 23.5 °F 28.4 °F 81% 29.53 in 6.2 mi SE 16.1 mph - N/A   Overcast
1:55 PM 33.8 °F 23.5 °F 28.4 °F 81% 29.53 in 6.2 mi SE 16.1 mph - N/A   Overcast
2:00 PM 33.8 °F 23.5 °F 28.4 °F 81% 29.53 in 6.2 mi ESE 16.1 mph - N/A   Mostly Cloudy
2:04 PM 33.8 °F 23.5 °F 28.4 °F 81% 29.53 in 6.2 mi ESE 16.1 mph - N/A   Mostly Cloudy
2:08 PM 33.8 °F 23.9 °F 28.4 °F 81% 29.53 in 6.2 mi ESE 15.0 mph - N/A   Overcast
2:15 PM 33.8 °F 23.9 °F 28.4 °F 81% 29.53 in 6.2 mi ESE 15.0 mph - N/A   Overcast
2:25 PM 33.8 °F 24.3 °F 28.4 °F 81% 29.56 in 6.2 mi ESE 13.8 mph - N/A   Overcast
2:29 PM 33.8 °F 24.3 °F 28.4 °F 81% 29.56 in 6.2 mi ESE 13.8 mph - N/A   Overcast
2:47 PM 33.8 °F 23.9 °F 28.4 °F 81% 29.56 in 6.2 mi ESE 15.0 mph - N/A   Overcast
2:48 PM 33.8 °F 23.9 °F 28.4 °F 81% 29.56 in 6.2 mi ESE 15.0 mph - N/A   Overcast
2:49 PM 33.8 °F 23.9 °F 28.4 °F 81% 29.56 in 6.2 mi ESE 15.0 mph - N/A   Overcast
2:55 PM 33.8 °F 23.5 °F 28.4 °F 81% 29.56 in 6.2 mi ESE 16.1 mph - N/A   Overcast
3:25 PM 33.8 °F 24.3 °F 28.4 °F 81% 29.59 in 6.2 mi ESE 13.8 mph - N/A   Overcast
3:55 PM 33.8 °F 24.3 °F 28.4 °F 81% 29.59 in 6.2 mi ESE 13.8 mph - N/A   Overcast
4:06 PM 33.8 °F 25.3 °F 28.4 °F 81% 29.59 in 6.2 mi ESE 11.5 mph - N/A   Overcast
4:18 PM 33.8 °F 25.8 °F 28.4 °F 81% 29.62 in 6.2 mi East 10.4 mph - N/A   Overcast
4:25 PM 33.8 °F 25.3 °F 28.4 °F 81% 29.62 in 6.2 mi East 11.5 mph - N/A   Overcast
4:55 PM 33.8 °F 25.8 °F 28.4 °F 81% 29.62 in 6.2 mi East 10.4 mph - N/A   Overcast
5:25 PM 33.8 °F 25.8 °F 26.6 °F 75% 29.65 in 6.2 mi East 10.4 mph - N/A   Overcast
5:55 PM 33.8 °F 26.4 °F 26.6 °F 75% 29.68 in 6.2 mi East 9.2 mph - N/A   Overcast
6:25 PM 32.0 °F 23.6 °F 26.6 °F 80% 29.71 in 6.2 mi East 10.4 mph - N/A   Overcast
6:55 PM 32.0 °F 23.6 °F 26.6 °F 80% 29.74 in 6.2 mi East 10.4 mph - N/A   Overcast
7:00 PM 32 °F - 26 °F 69% 29.75 in 16 mi ENE 8.9 mph - -   Partly Cloudy
7:25 PM 32.0 °F 24.2 °F 24.8 °F 75% 29.74 in 6.2 mi East 9.2 mph - N/A   Partly Cloudy
7:55 PM 30.2 °F 21.9 °F 24.8 °F 80% 29.77 in 6.2 mi East 9.2 mph - N/A   Unknown
8:25 PM 30.2 °F 20.8 °F 24.8 °F 80% 29.80 in 6.2 mi East 11.5 mph - N/A   Unknown
8:55 PM 30.2 °F 21.3 °F 24.8 °F 80% 29.80 in 6.2 mi East 10.4 mph - N/A   Unknown
9:25 PM 26.6 °F 18.2 °F 23.0 °F 86% 29.83 in 6.2 mi ENE 8.1 mph - N/A   Unknown
9:55 PM 24.8 °F 16.1 °F 21.2 °F 86% 29.86 in 6.2 mi ENE 8.1 mph - N/A   Unknown
10:25 PM 24.8 °F 16.9 °F 21.2 °F 86% 29.86 in 6.2 mi ENE 6.9 mph - N/A   Unknown
10:55 PM 23.0 °F 14.7 °F 19.4 °F 86% 29.89 in 5.6 mi NE 6.9 mph - N/A   Mist
11:25 PM 24.8 °F 16.1 °F 21.2 °F 86% 29.89 in 6.2 mi East 8.1 mph - N/A   Unknown
11:35 PM 23.0 °F 13.9 °F 19.4 °F 86% 29.92 in 4.3 mi ENE 8.1 mph - N/A   Partly Cloudy
11:39 PM 24.8 °F 16.1 °F 21.2 °F 86% 29.92 in 5.0 mi ENE 8.1 mph - N/A   Partly Cloudy
11:55 PM 23.0 °F 13.9 °F 19.4 °F 86% 29.92 in 5.0 mi ENE 8.1 mph - N/A   Partly Cloudy